Location: Caltech
(34.1382°N, 118.1253°W)
Time: 06:52:17
(UTC-08:00)

Hamsat - Visible Passes

Search period start: 24 February 2017 00:00
Search period end: 06 March 2017 00:00
Orbit: 585 x 619 km, 97.6° (Epoch: 23 February)

Date Brightness Start Highest point End Pass type
(mag) Time Alt. Az. Time Alt. Az. Time Alt. Az.
24 Feb ? 04:32:17 10° N 04:32:33 12° N 04:32:33 12° N visible
25 Feb ? 04:44:19 10° NNW 04:44:42 12° NNW 04:44:42 12° NNW visible
26 Feb ? 04:56:30 10° NNW 04:56:50 12° NNW 04:56:50 12° NNW visible
27 Feb ? 05:08:51 10° NNW 05:08:58 10° NNW 05:08:58 10° NNW visible
28 Feb ? 03:43:46 10° NNE 03:44:18 13° NNE 03:44:18 13° NNE visible
01 Mar ? 03:55:28 10° NNE 03:56:26 17° NNE 03:56:26 17° NNE visible
02 Mar ? 04:07:15 10° N 04:08:35 20° N 04:08:35 20° N visible
03 Mar ? 04:19:07 10° N 04:20:43 22° N 04:20:43 22° N visible
04 Mar ? 04:31:03 10° N 04:32:51 23° NNW 04:32:51 23° NNW visible
05 Mar ? 04:43:05 10° NNW 04:45:00 22° NNW 04:45:00 22° NNW visible
